Location: Lavington
(51.2833°N, 1.9833°W)
Time: 21:04:41
(UTC+00:00)

BREEZE-M DEB (TANK) - Pass Details

Date: 01 June 2020
Orbit: 559 x 17159 km, 49.5° (Epoch: 10 July)

Event Time Altitude Azimuth Distance (km) Brightness Sun altitude
Rises 21:42:33 0° 264° (W) 4,210 7.7 -10.0°
Reaches altitude 10° 21:46:02 10° 262° (W) 2,496 6.5 -10.3°
Maximum altitude 21:50:35 71° 179° (S) 619 2.9 -10.7°
Drops below altitude 10° 21:54:03 10° 95° (E) 1,910 5.2 -11.0°
Sets 21:56:20 0° 93° (E) 3,068 6.3 -11.2°
